TimeCST,TemperatureF,Dew PointF,Humidity,Sea Level PressureIn,VisibilityMPH,Wind Direction,Wind SpeedMPH,Gust SpeedMPH,PrecipitationIn,Events,Conditions,WindDirDegrees,DateUTC
12:53 AM,-5.1,-9.0,83,30.25,10.0,Calm,Calm,-,N/A,,Clear,0,2012-12-10 06:53:00
1:53 AM,-9.9,-14.1,82,30.22,10.0,WSW,4.6,-,N/A,,Clear,240,2012-12-10 07:53:00
2:53 AM,-11.0,-16.1,78,30.21,10.0,WSW,3.5,-,N/A,,Clear,240,2012-12-10 08:53:00
3:53 AM,-11.0,-17.0,75,30.17,10.0,Calm,Calm,-,N/A,,Clear,0,2012-12-10 09:53:00
4:53 AM,-15.0,-18.9,82,30.14,10.0,SSE,5.8,-,N/A,,Clear,160,2012-12-10 10:53:00
5:05 AM,-16.6,-20.2,84,30.02,10.0,SSE,5.8,-,N/A,,Scattered Clouds,160,2012-12-10 11:05:00
5:18 AM,-13.0,-16.6,84,30.02,10.0,South,4.6,-,N/A,,Mostly Cloudy,170,2012-12-10 11:18:00
5:37 AM,-14.8,-20.2,77,30.01,10.0,South,5.8,-,N/A,,Scattered Clouds,170,2012-12-10 11:37:00
5:53 AM,-14.1,-18.9,79,30.12,10.0,SSW,5.8,-,N/A,,Mostly Cloudy,200,2012-12-10 11:53:00
6:24 AM,-14.8,-20.2,77,29.99,10.0,SSE,5.8,-,N/A,,Scattered Clouds,160,2012-12-10 12:24:00
6:53 AM,-11.9,-18.0,74,30.10,10.0,South,6.9,-,N/A,,Clear,180,2012-12-10 12:53:00
7:53 AM,-11.9,-17.0,78,30.08,8.0,South,6.9,-,N/A,,Partly Cloudy,180,2012-12-10 13:53:00
8:22 AM,-11.2,-16.6,77,29.95,10.0,SSE,6.9,-,N/A,,Mostly Cloudy,160,2012-12-10 14:22:00
8:38 AM,-9.4,-14.8,77,29.95,10.0,South,5.8,-,N/A,,Scattered Clouds,170,2012-12-10 14:38:00
8:53 AM,-9.9,-15.0,78,30.06,10.0,SSE,6.9,-,N/A,,Partly Cloudy,160,2012-12-10 14:53:00
9:53 AM,-7.1,-11.0,83,30.03,10.0,South,10.4,-,N/A,,Clear,170,2012-12-10 15:53:00
10:24 AM,-4.0,-9.4,78,29.91,10.0,SSE,9.2,-,N/A,,Scattered Clouds,160,2012-12-10 16:24:00
10:35 AM,-2.2,-7.6,78,29.91,8.0,South,11.5,-,N/A,,Mostly Cloudy,180,2012-12-10 16:35:00
10:53 AM,-2.0,-6.0,83,30.01,1.8,South,9.2,-,N/A,,Mostly Cloudy,180,2012-12-10 16:53:00
10:57 AM,-2.2,-5.8,85,29.89,3.0,South,11.5,-,N/A,,Mostly Cloudy,180,2012-12-10 16:57:00
11:09 AM,-0.4,-5.8,78,29.89,6.0,South,9.2,-,N/A,,Scattered Clouds,180,2012-12-10 17:09:00
11:53 AM,1.9,-2.9,80,29.97,9.0,South,11.5,-,N/A,,Scattered Clouds,190,2012-12-10 17:53:00
12:24 PM,3.2,-2.2,78,29.85,6.0,South,17.3,-,N/A,,Haze,180,2012-12-10 18:24:00
12:51 PM,5.0,-0.4,78,29.84,5.0,South,13.8,-,N/A,,Haze,180,2012-12-10 18:51:00
12:53 PM,5.0,-0.0,80,29.94,5.0,South,15.0,-,N/A,,Haze,180,2012-12-10 18:53:00
1:15 PM,6.8,-0.4,72,29.82,10.0,South,15.0,-,N/A,,Overcast,180,2012-12-10 19:15:00
1:53 PM,8.1,1.9,76,29.89,10.0,South,15.0,-,N/A,,Overcast,180,2012-12-10 19:53:00
2:53 PM,9.0,3.0,77,29.87,9.0,South,15.0,-,0.00,Snow,Light Snow,190,2012-12-10 20:53:00
3:07 PM,8.6,3.2,79,29.76,3.0,South,13.8,-,0.00,Snow,Light Snow,190,2012-12-10 21:07:00
3:21 PM,10.4,3.2,73,29.77,5.0,South,15.0,-,0.00,Snow,Light Snow,190,2012-12-10 21:21:00
3:37 PM,10.4,3.2,73,29.76,1.8,SSW,17.3,-,0.00,Snow,Light Snow,200,2012-12-10 21:37:00
3:53 PM,10.0,5.0,80,29.87,1.8,South,12.7,-,0.00,Snow,Light Snow,190,2012-12-10 21:53:00
4:07 PM,10.4,5.0,79,29.77,2.5,SSW,11.5,-,0.00,Snow,Light Snow,200,2012-12-10 22:07:00
4:28 PM,10.4,6.8,85,29.77,1.5,South,12.7,-,0.01,Snow,Light Snow,190,2012-12-10 22:28:00
4:42 PM,10.4,6.8,85,29.77,2.5,SSW,11.5,-,0.01,Snow,Light Snow,200,2012-12-10 22:42:00
4:51 PM,10.4,6.8,85,29.76,4.0,SSW,11.5,-,0.01,Snow,Light Snow,200,2012-12-10 22:51:00
4:53 PM,10.9,6.1,81,29.87,4.0,SSW,11.5,-,0.01,Snow,Light Snow,200,2012-12-10 22:53:00
5:37 PM,12.2,8.6,85,29.77,2.5,South,9.2,-,0.00,Snow,Light Snow,190,2012-12-10 23:37:00
5:46 PM,12.2,6.8,79,29.76,6.0,South,8.1,-,0.00,Snow,Light Snow,190,2012-12-10 23:46:00
5:53 PM,12.0,7.0,80,29.87,9.0,South,9.2,-,0.00,,Overcast,190,2012-12-10 23:53:00
6:53 PM,9.0,6.1,88,29.88,10.0,South,4.6,-,N/A,,Partly Cloudy,180,2012-12-11 00:53:00
7:53 PM,5.0,1.9,87,29.88,10.0,SSW,5.8,-,N/A,,Clear,200,2012-12-11 01:53:00
8:53 PM,8.1,3.9,83,29.88,10.0,South,5.8,-,N/A,,Overcast,180,2012-12-11 02:53:00
9:53 PM,8.1,3.9,83,29.88,10.0,SSW,5.8,-,N/A,,Overcast,210,2012-12-11 03:53:00
10:53 PM,7.0,3.0,84,29.88,10.0,West,8.1,-,N/A,,Mostly Cloudy,270,2012-12-11 04:53:00
11:53 PM,10.9,7.0,84,29.88,10.0,West,8.1,-,N/A,,Clear,260,2012-12-11 05:53:00